SCP
0 0 0 0 0 0 0 0 0 0 0 1 1 1 1 2 2 2 4 5 5 4 4 4 5 6 7 6 5 4 4 4 4 4 3 3 2 2 2 1 1 1 1 1
0 0 0 0 0 0 0 0 0 0 0 1 1 1 1 2 2 2 3 4 4 4 4 4 5 5 6 6 5 4 4 4 4 4 3 3 2 2 2 2 1 1 1 2
1 0 0 0 0 0 0 0 0 0 0 0 1 1 1 2 2 2 3 3 3 3 3 3 3 4 4 4 4 4 4 4 3 3 3 3 2 2 2 2 1 1 2 2
1 0 0 0 0 0 0 0 0 0 0 0 1 1 1 1 2 2 3 3 3 3 3 3 3 3 3 3 3 4 3 3 3 2 2 2 2 2 2 2 2 2 2 2
0 0 0 0 0 0 0 0 0 0 0 0 0 0 1 1 2 3 4 3 3 3 3 2 2 3 3 3 4 4 3 3 2 2 2 2 2 1 1 1 2 2 2 2
0 0 0 0 0 0 0 0 0 0 0 0 0 1 1 1 2 4 5 5 4 4 4 3 3 4 4 4 4 4 3 3 2 2 1 2 2 1 1 2 2 2 2 2
0 0 0 0 0 0 0 0 0 0 0 0 0 1 1 1 2 4 5 5 5 5 4 4 4 5 5 5 5 4 3 3 2 2 1 1 2 2 2 2 3 3 2 2
0 0 0 0 0 0 0 0 0 0 0 0 0 0 1 1 2 4 5 5 4 4 4 4 5 5 6 5 4 4 3 3 2 2 1 2 2 2 2 2 3 3 3 3
0 0 0 0 0 0 0 0 0 0 0 0 0 0 1 1 2 4 4 4 3 3 3 4 4 5 5 5 3 3 4 3 2 2 2 2 2 2 2 2 2 3 3 3
0 0 0 0 0 0 0 0 0 0 0 0 0 0 1 1 3 4 3 3 3 4 4 5 5 5 4 4 3 3 4 3 3 2 2 2 2 2 2 2 2 2 3 3
0 0 0 0 0 0 0 0 0 0 0 0 0 1 2 2 4 4 4 3 4 5 6 6 5 5 5 4 4 4 3 3 3 3 3 2 2 2 2 2 2 2 3 4
0 0 0 0 0 0 0 0 0 0 0 0 1 1 2 3 4 5 4 4 6 8 8 6 5 6 5 5 4 4 4 4 3 4 4 3 3 3 3 2 2 2 4 5
0 0 0 0 0 0 0 0 0 0 0 0 1 1 2 4 5 5 5 6 8 9 8 6 5 5 5 5 5 6 6 5 4 4 5 5 4 4 4 3 2 3 4 5
0 0 0 0 0 0 0 0 0 0 0 0 1 1 2 4 7 7 7 8 10 10 8 6 5 5 5 6 7 7 6 4 4 4 5 6 6 5 5 4 3 3 5 6
0 0 0 0 0 0 0 0 0 0 0 0 1 2 3 5 7 7 8 8 8 8 8 6 6 5 6 7 8 8 6 4 3 4 6 6 7 6 5 4 4 4 5 5
0 0 0 0 0 0 0 1 1 1 1 1 1 3 4 5 7 8 8 7 6 6 6 6 6 6 5 6 7 7 5 5 5 6 6 6 6 6 5 5 4 5 4 4
0 0 0 1 1 0 0 1 2 2 2 2 3 4 5 7 8 9 10 9 7 5 5 5 6 7 7 7 8 8 8 8 8 6 5 5 5 5 5 5 5 5 5 5
0 0 0 0 1 1 0 1 2 3 4 4 5 5 6 7 7 8 10 9 7 5 4 5 7 8 9 9 8 9 10 9 8 6 4 4 4 4 4 5 5 6 6 7
0 0 0 0 1 1 1 1 2 3 5 6 6 6 6 5 5 6 7 7 5 4 5 6 6 7 7 7 6 7 7 7 5 4 4 3 3 3 3 3 4 5 6 7
0 0 0 0 1 1 1 1 1 3 4 5 5 4 4 4 5 5 4 4 4 4 6 6 5 4 4 4 4 4 3 3 3 3 3 3 3 3 2 2 3 4 5 5
0 0 0 0 1 1 1 1 1 2 2 3 3 3 3 3 4 4 4 3 3 5 7 8 6 3 2 2 3 3 2 2 3 3 2 2 2 2 2 2 3 3 3 3
0 0 0 1 1 1 1 1 1 1 2 2 3 3 3 3 3 3 2 2 3 5 8 8 6 4 2 2 2 3 2 3 4 4 3 3 2 2 3 3 3 2 2 3
0 0 1 1 1 1 1 1 2 2 2 3 4 4 3 2 2 2 2 2 3 5 7 8 7 5 3 2 1 1 2 2 4 5 4 3 3 3 3 3 3 2 2 2
0 0 1 1 1 1 1 1 2 2 3 4 4 4 3 3 3 3 3 4 4 5 6 7 7 6 4 2 2 1 1 2 3 4 4 3 3 2 2 2 2 2 2 2
0 1 1 1 1 1 1 1 1 2 3 4 4 4 3 3 3 3 4 5 6 5 4 5 6 6 5 3 2 2 2 2 2 2 3 3 2 2 1 1 2 2 2 2
0 0 1 1 1 1 1 1 1 2 3 4 5 4 4 3 3 3 3 5 7 5 3 4 6 6 5 4 2 2 2 2 2 2 2 2 2 2 1 1 1 1 1 1
Wind_Speed
2 1 5 8 8 8 6 5 5 6 4 1 2 4 7 9 9 10 9 9 10 10 9 9 9 9 8 7 7 6 6 5 4 2 2 2 1 1 1 1 2 2 3 3
3 6 12 10 7 6 5 5 6 5 2 2 2 2 5 7 10 11 12 11 11 9 8 9 8 8 9 9 8 7 6 5 5 3 3 2 2 1 1 1 1 2 2 2
8 11 8 7 7 5 5 5 5 4 2 3 2 3 2 3 4 4 6 8 9 12 12 10 9 8 9 9 9 8 7 6 5 4 3 2 2 1 1 0 0 1 2 2
7 10 8 7 7 5 5 7 5 3 2 2 1 2 6 3 2 5 7 8 8 9 9 9 9 8 10 9 8 8 7 6 5 4 4 4 3 2 2 1 1 1 1 2
7 6 6 7 7 4 6 5 2 1 2 1 2 1 7 1 3 6 8 10 10 10 11 11 10 9 8 8 7 7 6 6 5 5 5 4 3 2 1 1 1 1 1 1
9 7 5 7 6 4 2 3 6 5 5 2 4 3 6 5 8 7 7 9 11 10 11 10 9 7 6 7 7 7 6 5 5 5 5 5 5 3 3 2 1 1 1 1
7 7 5 3 3 4 3 6 5 6 5 4 4 2 8 8 8 8 9 10 10 10 10 9 9 9 8 8 8 7 7 5 5 4 4 5 5 5 4 3 2 2 1 1
3 7 5 3 5 4 2 8 7 4 4 4 4 3 7 6 4 4 6 8 8 8 8 10 10 9 10 10 9 8 8 6 5 4 4 4 4 3 2 3 3 2 2 2
5 7 6 3 2 5 1 2 7 7 2 1 4 4 5 2 2 3 6 7 7 8 8 10 10 9 9 9 9 9 8 7 6 5 4 3 4 4 3 3 2 2 2 1
6 4 6 4 3 2 4 4 5 5 3 2 4 3 3 3 3 4 6 7 7 7 7 8 8 8 7 7 7 7 8 7 6 6 6 5 4 4 4 3 3 2 2 1
4 4 6 4 1 2 2 2 3 3 5 6 2 5 4 5 4 5 5 6 7 7 7 7 7 7 6 5 5 5 6 7 6 6 5 5 4 4 3 3 3 3 2 2
1 5 2 6 6 3 4 3 5 3 2 4 3 6 3 3 3 6 6 5 5 6 6 5 6 6 6 6 6 6 6 6 7 6 6 5 4 3 3 3 3 3 3 2
2 6 2 7 8 5 2 1 2 4 4 3 3 5 3 3 3 3 5 5 5 6 6 4 4 5 5 5 5 5 5 5 5 6 6 5 4 4 4 4 4 3 3 3
4 5 6 6 6 3 2 3 1 4 3 2 4 3 4 3 2 2 3 4 5 5 6 5 4 4 4 5 5 4 4 4 5 4 5 5 5 5 5 4 4 3 3 3
6 3 0 2 2 1 2 3 2 1 4 5 4 4 4 3 1 2 4 4 4 4 5 5 4 3 4 4 3 3 3 3 4 4 4 4 4 4 4 3 4 3 3 3
5 2 2 4 3 4 4 5 3 1 1 3 3 1 3 1 2 4 5 6 5 3 4 5 4 4 4 4 4 3 3 3 3 4 3 3 2 2 3 3 3 3 3 3
2 3 3 3 5 4 4 3 2 2 1 3 3 3 0 3 3 2 3 4 4 4 4 5 4 4 3 3 3 4 3 3 3 3 2 2 2 2 3 3 3 4 4 3
3 2 2 0 3 1 4 2 2 4 4 2 2 3 3 4 4 3 3 4 3 3 3 3 2 2 2 2 2 2 3 3 3 2 2 2 2 2 2 2 3 4 3 3
5 5 3 2 1 3 4 4 1 2 3 5 3 4 3 5 6 4 2 1 2 4 3 3 3 2 3 3 3 3 2 3 2 2 2 2 2 2 2 2 3 3 3 2
3 5 4 3 2 4 4 5 2 5 2 4 3 2 2 4 4 2 2 1 2 2 2 2 2 3 3 2 4 3 1 2 2 2 2 1 2 2 2 2 2 2 2 3
4 3 2 3 3 3 4 5 4 3 4 3 1 0 1 1 3 3 1 1 1 2 2 2 3 3 2 2 4 3 1 1 2 1 1 1 1 1 1 1 2 2 2 2
1 1 0 2 2 4 5 4 2 3 2 1 1 1 2 1 0 1 1 1 1 1 2 3 3 2 1 2 4 3 2 2 1 1 1 1 1 1 1 0 1 1 2 2
1 3 3 3 3 4 1 2 1 2 2 1 2 1 2 2 1 1 1 1 1 1 1 2 3 2 1 1 3 3 3 1 1 1 0 1 1 1 0 1 1 2 1 2
3 2 3 2 1 2 2 3 2 1 1 0 1 2 3 2 1 1 0 1 1 1 1 2 2 2 1 1 1 2 2 1 1 1 1 1 1 1 1 1 1 2 2 2
3 1 2 0 2 3 3 3 2 2 2 3 2 2 2 2 0 1 0 0 0 0 1 1 2 2 2 1 1 1 1 1 1 1 1 1 1 2 1 1 1 2 2 3
2 2 3 3 4 2 4 4 2 2 2 1 2 2 2 1 1 1 1 0 0 0 1 0 0 1 2 1 1 1 1 1 2 1 1 1 1 1 1 1 1 2 2 2
Wind_Direction
287 80 249 242 216 216 236 259 269 260 248 148 168 176 190 181 172 173 177 179 177 178 180 173 167 164 157 152 149 153 151 158 150 141 142 143 164 175 182 194 184 182 183 183
345 267 245 244 246 235 245 265 279 285 273 154 167 190 197 187 187 184 182 183 180 175 171 173 168 164 161 159 160 158 160 164 163 165 163 162 157 180 184 190 181 186 182 182
224 249 260 251 257 253 256 229 242 240 344 4 70 348 275 221 179 176 182 177 176 176 175 174 170 169 163 164 168 168 167 163 166 159 138 120 84 56 55 46 236 226 202 198
247 254 265 267 255 225 256 246 231 224 128 275 105 283 286 250 182 188 190 182 178 176 169 166 166 166 170 174 169 165 165 162 163 154 149 152 158 170 199 198 207 234 208 194
257 266 273 267 251 226 232 258 267 226 132 24 356 132 282 275 201 207 193 189 184 181 174 171 172 171 172 169 164 164 161 160 164 161 162 159 164 180 182 171 191 238 254 223
255 267 243 243 253 224 221 6 14 41 66 9 267 170 267 237 212 208 198 184 180 180 178 171 164 153 153 159 160 162 158 167 169 165 161 161 167 165 155 168 184 230 264 256
298 292 274 260 282 309 66 76 25 360 13 265 271 182 246 237 211 196 193 185 177 172 169 163 158 157 158 161 164 162 164 173 175 168 170 170 172 168 169 179 180 184 229 253
243 285 275 253 201 208 207 135 153 197 221 271 317 247 259 242 202 181 172 165 164 163 166 163 164 166 168 172 172 169 170 171 171 170 181 178 172 168 172 178 175 182 202 219
196 256 277 256 208 154 176 184 169 147 197 302 290 288 314 344 95 121 133 138 157 164 166 164 167 170 172 174 177 173 168 169 171 173 171 172 172 172 173 177 173 187 202 200
177 250 286 289 27 5 152 162 89 110 157 257 290 282 253 256 165 130 134 152 153 150 154 157 165 167 172 176 174 164 165 171 179 181 185 179 179 179 176 170 178 191 201 199
162 178 298 349 167 240 20 43 97 120 154 159 231 271 239 180 158 148 145 150 149 154 153 153 163 164 160 158 164 168 173 169 178 185 184 180 187 185 176 173 186 192 198 190
160 132 245 266 261 191 144 163 134 143 245 164 166 261 309 143 142 143 141 136 140 139 133 141 151 150 152 161 168 171 176 177 184 184 180 188 193 186 184 189 199 192 191 195
99 104 54 339 341 357 39 67 125 135 124 141 162 261 327 24 70 111 128 125 135 132 124 123 135 143 153 158 158 165 173 182 185 183 183 189 193 194 203 208 206 196 194 201
85 100 148 193 231 265 321 326 62 111 134 204 211 232 311 345 53 72 103 130 132 130 130 135 138 141 146 151 154 160 176 177 175 177 185 194 203 204 206 206 205 202 196 196
67 87 137 231 243 349 339 329 329 155 180 175 210 196 250 260 196 114 106 104 109 116 123 131 136 142 136 131 140 146 160 179 180 175 184 197 206 209 207 202 200 198 196 203
42 76 30 340 341 10 359 356 8 32 99 130 115 256 262 256 110 91 98 108 120 121 115 118 122 130 142 153 160 156 165 178 170 172 181 183 183 192 200 200 196 191 196 203
15 72 58 302 316 15 344 339 29 51 32 135 166 230 167 75 90 114 119 117 117 134 135 133 137 146 152 169 167 165 174 161 141 158 170 177 179 186 197 197 186 191 201 199
147 95 126 199 21 242 248 304 55 79 38 52 111 117 124 125 123 109 105 119 123 123 107 104 111 121 129 126 133 148 145 140 141 147 157 181 186 196 203 197 203 211 202 194
161 147 133 128 187 267 310 326 325 90 13 12 64 101 97 93 77 45 5 62 141 145 136 143 142 129 105 103 106 102 110 120 123 152 181 188 184 189 192 212 223 221 198 194
64 110 129 142 165 225 255 297 311 92 24 349 36 66 71 70 75 281 300 8 74 97 107 119 127 110 112 124 118 109 115 132 157 183 199 192 189 188 202 220 223 223 207 203
6 29 120 172 200 243 276 315 29 95 230 293 17 76 56 102 192 223 270 32 92 128 137 129 128 129 142 129 117 117 134 219 230 202 191 191 193 206 214 227 231 223 214 200
161 88 209 132 157 262 315 28 92 202 220 202 95 104 115 132 110 45 66 67 64 93 118 135 129 119 115 129 131 138 197 241 238 144 183 225 234 241 238 167 301 262 216 207
125 183 181 173 202 250 337 117 177 157 136 155 133 160 147 132 113 51 42 27 50 101 121 141 137 129 133 161 159 174 223 224 165 121 226 244 260 267 249 190 248 280 255 207
318 358 88 61 318 321 30 43 31 53 103 195 137 142 129 128 182 145 79 32 6 3 105 138 134 144 193 208 203 216 232 176 138 186 252 255 254 280 286 243 232 236 236 228
275 348 67 358 292 354 358 356 346 5 34 38 34 61 94 104 112 167 122 90 224 357 19 102 151 177 215 223 237 239 214 173 181 223 251 260 252 241 251 260 257 248 247 229
257 177 164 225 241 217 270 288 345 38 26 33 59 46 37 80 112 116 116 33 -0 43 53 24 226 216 230 210 229 246 214 210 205 235 264 250 241 238 224 212 327 327 271 277